Powrót do katalogu

SL-14 R/B

AktywnyLEO
NORAD 23412·ROCKET BODY·🇷🇺 Russia

Wystrzelony Nov 29, 1994 z Plesetsk Cosmodrome

Loading…

Następne Przeloty (najbliższe 24 godziny)

TLE

ŚwieżeSource: Space-Track

Epoka: Sep 14, 2026, 09:25 UTC

1 23412U 94078B   26257.39282171 -.00000029  00000-0 -89733-4 0  9992
2 23412  73.6173  39.8273 0043480 175.8352 212.2159 12.41009464440442

Śledź SL-14 R/B w czasie rzeczywistym z AllMySat

Download on the App Store